Location: Newark
(11.6000°N, 43.1667°E)
Time: 01:14:48
(UTC+00:00)

Envisat - Pass Details

Date: 22 September 2019
Orbit: 764 x 766 km, 98.1° (Epoch: 19 October)

Event Time Altitude Azimuth Distance (km) Brightness Sun altitude
Rises 16:18:41 0° 191° (S) 3,220 6.3 -19.2°
Reaches altitude 10° 16:21:18 10° 203° (SSW) 2,294 5.7 -19.8°
Maximum altitude 16:25:30 27° 260° (W) 1,444 5.1 -20.8°
Drops below altitude 10° 16:29:43 10° 317° (NW) 2,294 6.1 -21.9°
Sets 16:32:21 0° 329° (NNW) 3,219 6.7 -22.5°
